Location: Frankfurt am Main
(50.1109°N, 8.6821°E)
Time: 19:26:49
(UTC+01:00)

ISS - Visible Passes

Search period start: 21 March 2019 00:00
Search period end: 31 March 2019 00:00
Orbit: 406 x 411 km, 51.6° (Epoch: 21 March)

Date Brightness Start Highest point End Pass type
(mag) Time Alt. Az. Time Alt. Az. Time Alt. Az.
21 Mar -1.6 20:28:03 10° SSW 20:28:51 15° S 20:28:51 15° S visible
22 Mar -2.0 19:37:49 10° S 19:39:54 16° SE 19:40:41 15° ESE visible
22 Mar -1.3 21:12:44 10° WSW 21:13:28 16° WSW 21:13:28 16° WSW visible
23 Mar -3.5 20:21:48 10° SW 20:24:58 44° SSE 20:25:05 44° SE visible
24 Mar -2.8 19:31:03 10° SSW 19:33:59 30° SSE 19:36:31 12° E visible
24 Mar -2.6 21:07:02 10° WSW 21:09:16 40° W 21:09:16 40° W visible
25 Mar -3.9 20:15:56 10° WSW 20:19:13 76° SSE 20:20:31 34° E visible
25 Mar -0.9 21:52:36 10° W 21:53:16 15° W 21:53:16 15° W visible
26 Mar -3.6 19:24:54 10° SW 19:28:08 54° SSE 19:31:23 10° ENE visible
26 Mar -3.4 21:01:24 10° W 21:04:24 62° NW 21:04:24 62° NW visible
27 Mar -3.7 20:10:13 10° W 20:13:31 76° NNW 20:15:25 23° ENE visible
27 Mar -1.3 21:46:56 10° WNW 21:48:10 21° WNW 21:48:10 21° WNW visible
28 Mar -3.8 19:19:02 10° WSW 19:22:21 87° SSE 19:25:40 10° ENE visible
28 Mar -3.6 20:55:45 10° W 20:59:02 65° N 20:59:07 65° NNE visible
29 Mar -3.5 20:04:32 10° W 20:07:49 65° N 20:10:01 19° ENE visible
29 Mar -1.7 21:41:11 10° WNW 21:42:45 26° WNW 21:42:45 26° WNW visible
30 Mar -3.9 20:50:00 10° WNW 20:53:18 77° NNE 20:53:37 68° ENE visible
